Home   Weather   Galway   Past weeks

Flag for Ireland Past Weather in Galway, Ireland — Yesterday and Last 2 Weeks

Now
48 °F

Sprinkles. Partly sunny.


Feels Like: 42 °F
Forecast: 42 / 50 °F
Wind: 16 mph from Northwest

Location: Shannon Airport

Current Time: Apr 26, 2017 at 6:57:58 pm

Latest Report: Apr 26, 2017 at 6:00 pm


Visibility: N/A

Pressure: 30.24 "Hg

Humidity: 66%

Dew Point: 37 °F

Location of GalwayLocation

Past Weather in Galway — Graph

°F

Galway Temperature Yesterday

Maximum temperature yesterday: 50 °F (at 1:30 pm)
Minimum temperature yesterday: 36 °F (at 12:00 am)
Average temperature yesterday: 42 °F

High & Low Weather Summary for the Past Weeks

 TemperatureHumidityPressure
High61 °F (Apr 20, 2:00 pm)100% (Apr 13, 11:30 pm)30.66 "Hg (Apr 13, 11:30 pm)
Low32 °F (Apr 26, 4:30 am)44% (Apr 24, 4:30 pm)30.01 "Hg (Apr 14, 4:00 am)
Average49 °F79%30.32 "Hg
* Reported Apr 11 5:00 pm — Apr 26 5:30 pm, Galway, Weather by CustomWeather, © 2017

Note: Actual official high and low records may vary slightly from our data, if they occured in-between our weather recording intervals... More about our weather records

Advertising

Galway Weather History for the Previous 24 Hours

Scroll right to see more
 ConditionsComfort  
Time TempWeatherWind HumidityBarometerVisibility
5:30 pm
Wed, Apr 26
50 °FPartly sunny.12 mph54%30.24 "HgN/A
5:00 pm50 °FPartly sunny.10 mph58%30.24 "HgN/A
4:30 pm50 °FPartly sunny.10 mph54%30.24 "HgN/A
4:00 pm50 °FPartly sunny.12 mph50%30.27 "HgN/A
3:30 pm50 °FPartly sunny.9 mph54%30.27 "HgN/A
3:00 pm48 °FBroken clouds.9 mph58%30.27 "HgN/A
2:30 pm48 °FBroken clouds.10 mph58%30.27 "HgN/A
2:00 pm48 °FBroken clouds.9 mph58%30.27 "HgN/A
1:00 pm48 °FPartly sunny.10 mph54%30.27 "HgN/A
12:30 pm48 °FPartly sunny.9 mph58%30.27 "HgN/A
12:00 pm46 °FSprinkles. Broken clouds.10 mph57%30.27 "HgN/A
11:30 am46 °FBroken clouds.13 mph57%30.27 "HgN/A
11:00 am46 °FScattered clouds.12 mph57%30.27 "HgN/A
10:30 am46 °FPartly sunny.13 mph57%30.27 "HgN/A
10:00 am45 °FPartly sunny.13 mph66%30.27 "HgN/A
9:30 am45 °FScattered clouds.10 mph66%30.27 "HgN/A
9:00 am43 °FPassing clouds.12 mph71%30.27 "HgN/A
8:30 am43 °FScattered clouds.7 mph76%30.27 "HgN/A
8:00 am39 °FScattered clouds.7 mph87%30.27 "HgN/A
7:30 am37 °FPartly sunny.5 mph87%30.27 "HgN/A
7:00 am36 °FPartly sunny.5 mph93%30.27 "HgN/A
6:30 am36 °FPartly sunny.7 mph93%30.27 "HgN/A
6:00 am34 °FPassing clouds.6 mph93%30.27 "HgN/A
5:30 am34 °FPassing clouds.7 mph93%30.27 "HgN/A
5:00 am34 °FPassing clouds.6 mph93%30.27 "HgN/A
4:30 am32 °FPassing clouds.7 mph93%30.27 "HgN/A
4:00 am34 °FPassing clouds.7 mph93%30.27 "HgN/A
3:30 am34 °FPassing clouds.6 mph93%30.27 "HgN/A
3:00 am36 °FPassing clouds.5 mph87%30.27 "HgN/A
2:30 am36 °FPassing clouds.1 mph87%30.27 "HgN/A
2:00 am36 °FPassing clouds.No wind87%30.27 "HgN/A
1:30 am36 °FPassing clouds.No wind87%30.27 "HgN/A
1:00 am36 °FPassing clouds.5 mph87%30.27 "HgN/A
12:30 am37 °FPassing clouds.5 mph81%30.27 "HgN/A
12:00 am37 °FPassing clouds.8 mph87%30.27 "HgN/A
11:30 pm
Tue, Apr 25
37 °FPassing clouds.10 mph87%30.24 "HgN/A
11:00 pm37 °FPassing clouds.9 mph87%30.24 "HgN/A
10:30 pm37 °FPassing clouds.8 mph87%30.24 "HgN/A
10:00 pm37 °FPassing clouds.9 mph87%30.24 "HgN/A
9:30 pm37 °FPassing clouds.8 mph87%30.24 "HgN/A
9:00 pm39 °FPassing clouds.10 mph81%30.24 "HgN/A
8:30 pm41 °FScattered clouds.13 mph76%30.21 "HgN/A
8:00 pm45 °FScattered clouds.8 mph61%30.21 "HgN/A
7:30 pm45 °FPassing clouds.14 mph61%30.21 "HgN/A
7:00 pm45 °FScattered clouds.17 mph71%30.21 "HgN/A
6:30 pm48 °FScattered clouds.21 mph58%30.18 "HgN/A
6:00 pm48 °FPassing clouds.14 mph58%30.18 "HgN/A
Weather by CustomWeather, © 2017

See weather overviewHow to use our weather pages